Temperature
26 23 23 23 24 25 25 26 26 27 28 27 26 25 24 24 22 21 20 19 18 17 18 19 19 19 19 20 19 19 18 18 17 17 17 17 18 18 18 19 19 19 19 20
23 23 25 27 27 27 27 26 26 26 27 27 24 23 22 21 20 19 18 17 16 16 17 17 18 18 19 19 18 19 18 17 17 17 17 17 18 18 19 19 19 19 19 19
25 26 28 28 27 27 27 26 26 26 26 24 24 21 20 20 19 18 17 16 16 16 16 16 17 17 18 18 18 18 17 17 17 17 17 17 18 18 18 19 18 19 19 19
25 26 27 27 27 27 26 27 27 26 24 21 22 21 20 18 18 17 16 16 15 15 16 16 16 17 17 17 17 17 17 17 17 17 17 17 18 18 18 18 18 18 18 18
24 25 25 25 27 27 27 27 26 25 23 21 20 20 19 18 17 16 16 15 15 15 16 16 16 16 16 16 16 16 16 16 16 16 17 17 17 17 17 17 17 17 17 17
24 25 25 25 26 27 27 25 23 20 19 20 20 19 18 16 16 16 16 15 16 16 16 16 16 16 16 16 16 16 16 16 16 16 16 16 16 16 16 16 17 16 16 16
23 24 25 26 26 26 25 21 20 20 18 19 18 18 17 16 17 17 16 16 16 16 16 16 16 16 16 16 16 16 16 15 15 15 15 15 15 15 15 15 15 15 15 15
22 22 24 25 25 24 24 22 20 20 19 18 18 18 17 17 16 16 16 16 16 16 16 16 16 16 16 16 15 15 15 15 15 15 14 14 14 14 14 14 14 14 14 14
21 22 25 26 26 25 24 22 21 19 20 19 17 17 17 16 16 16 16 16 16 16 16 16 16 16 16 16 15 15 15 14 14 14 14 13 13 13 13 13 13 12 13 13
22 23 24 25 24 24 23 22 18 19 19 19 19 18 16 16 16 16 16 16 16 16 16 16 16 16 16 16 15 14 14 14 14 13 13 13 12 12 12 12 12 12 12 12
23 21 22 22 22 23 22 21 19 17 17 18 18 18 18 16 16 15 15 16 17 17 17 17 17 16 16 15 15 14 14 14 13 13 13 13 12 12 12 11 11 11 11 11
22 19 19 21 22 22 22 21 19 18 18 17 17 17 18 16 16 16 16 17 17 17 17 16 16 16 15 15 14 14 14 13 13 13 12 12 12 12 11 11 11 11 11 10
22 19 18 19 20 21 21 21 19 17 16 17 17 17 17 16 16 16 16 16 16 16 16 15 15 15 14 14 14 13 13 13 13 12 12 12 12 11 11 11 11 11 10 10
21 18 19 19 20 20 20 21 20 18 16 17 17 17 16 15 15 15 16 16 15 15 15 14 14 14 14 13 13 13 13 13 12 12 12 12 12 11 11 11 11 11 10 10
19 19 20 20 21 21 20 21 20 19 18 17 17 16 15 15 15 15 15 15 15 14 14 14 14 13 13 13 13 13 12 12 12 12 12 12 11 11 11 11 10 10 10 10
18 19 19 19 21 20 20 20 20 19 18 18 16 15 15 15 15 15 15 14 14 14 13 13 13 13 13 13 12 12 12 12 12 12 11 11 11 11 11 10 10 10 10 10
19 19 18 18 20 20 17 18 18 18 17 16 15 14 14 13 13 14 14 14 14 14 13 13 13 13 13 12 12 12 12 12 11 11 11 11 11 10 10 10 10 10 10 9
19 18 16 17 18 19 18 19 19 17 15 15 15 14 14 14 14 14 14 14 14 13 13 13 13 13 12 12 12 11 11 11 11 11 10 10 10 10 10 9 9 9 9 9
18 18 17 16 18 18 18 18 18 17 15 15 14 13 14 14 13 13 14 14 13 13 13 13 12 12 11 11 10 10 10 10 9 9 9 9 9 9 9 9 9 9 9 9
18 17 17 17 18 18 17 18 19 17 15 14 14 13 13 12 10 11 13 13 13 12 12 11 11 10 10 9 9 8 8 8 8 7 7 7 7 7 7 8 8 8 8 8
18 16 16 17 17 17 17 18 17 14 13 14 14 14 13 12 11 13 13 13 12 11 10 10 9 9 8 8 7 7 6 6 6 6 6 6 6 6 6 6 7 7 7 7
17 16 16 15 16 16 17 16 14 14 15 15 14 14 14 13 13 13 12 11 11 10 9 9 8 7 7 6 6 5 5 5 5 5 5 5 5 5 5 5 6 6 6 6
17 16 15 15 15 16 17 16 16 15 15 14 14 14 13 13 13 12 11 10 9 9 8 7 7 6 6 5 5 5 5 5 5 5 5 5 5 5 5 5 5 5 6 6
17 17 15 15 16 16 16 16 15 15 14 14 14 13 13 12 12 11 10 9 8 8 7 7 6 5 5 5 5 5 5 5 5 5 5 5 4 5 5 5 5 5 5 6
17 17 15 15 16 16 16 15 15 15 14 14 13 13 12 12 11 10 9 8 8 7 7 6 5 5 5 5 5 5 5 5 5 5 5 5 5 4 4 5 5 5 5 6
16 15 15 14 15 14 15 15 15 14 14 13 13 12 12 11 10 9 9 8 7 7 6 5 5 5 5 5 5 5 5 5 5 5 5 5 5 5 5 5 5 5 5 6
Wind_Speed
3 3 7 11 10 11 8 4 5 6 7 7 7 7 10 11 12 11 10 11 12 11 9 9 9 8 7 7 5 2 3 2 2 1 2 2 2 2 3 4 5 6 7 7
3 5 13 11 6 4 3 4 5 6 8 8 9 12 13 17 15 14 14 13 11 9 9 9 7 7 7 5 3 3 2 2 2 3 3 3 2 2 3 3 4 5 6 6
6 4 6 7 7 5 4 2 3 4 6 8 7 8 10 12 17 18 17 13 10 9 8 7 7 7 7 7 5 4 2 1 1 3 2 2 1 1 1 2 3 4 5 6
4 6 10 10 7 3 4 5 4 5 5 4 5 1 3 8 14 15 13 12 10 8 7 6 7 8 8 7 6 6 4 3 2 2 1 0 1 1 3 2 3 4 4 5
5 6 8 7 6 5 3 2 4 4 2 2 3 3 2 4 8 9 9 9 8 6 5 5 6 7 7 7 7 6 7 7 6 5 4 3 3 2 2 2 2 3 3 4
4 3 3 4 7 4 1 6 8 7 5 2 3 3 3 3 2 3 4 6 5 4 4 4 5 6 6 6 6 6 6 6 6 7 7 7 6 6 5 5 4 3 3 3
7 7 5 3 5 7 6 7 6 7 6 3 1 5 2 3 5 5 4 4 5 4 3 3 4 5 5 5 5 5 5 4 5 6 6 6 6 6 6 5 5 5 4 4
2 7 5 2 1 3 2 7 5 3 4 4 2 2 3 4 3 2 3 3 3 3 3 3 4 5 5 5 5 4 3 2 2 3 4 4 4 3 3 5 5 5 4 5
5 6 5 4 3 2 1 0 5 5 1 1 1 1 1 2 3 4 3 2 3 4 4 4 4 5 5 6 5 5 4 3 2 1 1 2 3 3 4 5 4 4 4 5
5 3 5 6 6 5 3 1 6 4 1 3 2 3 4 7 8 6 5 4 3 3 3 4 4 5 6 7 6 7 6 6 5 5 4 4 4 5 5 5 6 6 6 5
3 3 6 6 4 4 5 4 4 2 3 3 2 4 4 9 8 7 6 5 4 4 3 4 5 5 5 6 6 7 7 7 7 8 7 7 7 7 6 6 7 7 6 6
3 5 3 5 5 1 2 0 3 2 3 1 1 5 3 5 4 4 3 2 2 3 4 5 5 4 3 4 5 7 8 8 9 9 9 9 9 8 8 8 9 8 8 8
4 6 4 9 9 6 5 4 2 4 4 3 2 5 3 0 1 2 3 4 5 6 7 6 5 5 5 6 7 8 9 10 10 9 9 10 10 10 10 11 10 9 9 9
5 5 4 2 7 3 5 8 7 6 4 2 1 3 5 4 5 6 6 7 7 6 5 5 5 6 7 7 8 9 10 10 10 10 10 11 12 12 12 11 11 11 10 10
6 4 4 3 3 9 9 8 8 8 5 3 3 3 4 5 5 5 7 8 7 6 7 8 8 8 8 9 9 9 10 10 10 10 10 12 12 11 11 11 11 11 11 11
5 4 6 6 5 10 10 9 8 6 6 3 3 3 4 4 5 8 9 9 7 8 10 10 10 10 10 11 11 11 11 11 10 10 11 11 10 10 11 11 11 11 10 10
2 3 4 5 6 4 6 7 6 5 5 4 3 4 6 7 9 9 9 8 9 11 12 12 11 11 12 12 12 12 12 11 10 10 11 10 10 10 10 11 10 10 10 9
5 3 3 2 7 4 2 3 6 4 5 5 2 5 6 7 8 8 8 9 12 13 13 13 12 12 12 12 11 11 11 10 10 10 10 9 9 9 9 8 9 9 8 8
5 6 4 3 2 1 1 4 4 3 1 3 4 7 8 8 7 7 10 10 13 14 14 14 13 13 11 11 11 10 9 9 9 9 9 9 9 9 8 8 9 8 7 8
6 6 6 4 2 3 3 5 4 2 2 2 6 7 9 9 9 8 10 12 13 13 12 11 10 10 10 10 9 9 10 10 10 11 10 9 9 9 10 10 9 8 7 8
5 6 5 3 1 3 4 5 5 4 7 7 6 7 8 7 8 11 14 13 12 11 11 10 10 10 10 11 11 12 13 13 13 12 12 11 11 11 10 10 9 9 8 8
4 3 2 2 2 5 4 4 2 5 6 6 6 7 8 10 11 11 12 11 11 10 10 10 10 11 11 12 12 13 14 14 13 13 13 13 12 12 12 9 8 8 8 8
4 7 6 6 6 5 1 4 4 5 4 6 6 9 9 9 10 11 10 10 10 10 11 11 12 14 14 13 12 15 16 15 15 14 14 13 13 11 10 10 9 8 7 7
3 3 4 2 3 4 3 1 1 2 4 6 7 8 8 9 10 10 9 9 10 10 11 11 14 16 16 15 15 15 16 15 15 15 14 12 11 11 10 8 8 8 7 7
5 4 3 1 1 0 3 4 4 4 6 7 8 8 9 9 9 9 9 10 10 11 11 12 15 16 18 17 17 16 15 14 14 13 13 11 10 9 8 8 8 8 7 8
1 5 6 5 6 4 5 6 3 5 7 7 8 9 9 7 9 9 9 10 11 13 13 15 16 17 18 18 18 17 15 13 13 12 10 8 7 7 6 6 7 9 10 11
Wind_Direction
307 128 244 249 221 217 242 275 311 314 337 39 52 49 36 52 63 72 73 76 80 78 75 74 75 83 86 81 86 104 141 162 200 288 309 266 236 221 203 203 186 172 167 159
326 249 243 252 275 269 309 354 340 330 352 34 49 53 51 49 54 59 67 70 74 74 67 65 65 76 85 89 86 90 143 166 215 225 231 240 213 226 221 218 211 187 173 167
215 269 318 327 323 337 338 336 338 341 3 26 62 40 48 50 56 59 55 53 55 66 67 66 69 72 74 65 55 56 42 47 254 248 256 311 352 340 317 254 228 210 187 181
15 344 352 339 316 337 311 315 6 8 25 352 46 41 22 58 58 56 58 55 47 46 56 65 70 69 70 73 67 54 56 54 7 331 334 39 237 246 261 257 252 239 214 197
331 335 345 332 312 336 272 334 19 359 22 33 15 109 338 38 54 50 59 66 61 53 59 64 69 70 69 67 64 56 47 34 16 11 8 13 2 321 308 314 292 266 257 238
281 274 242 264 298 296 333 29 17 35 56 5 311 116 342 13 94 88 80 92 94 83 83 89 88 86 81 76 69 61 53 38 25 25 20 18 10 357 357 352 340 312 294 281
324 315 301 279 322 337 42 62 18 355 359 278 358 103 212 177 157 144 155 147 134 143 145 132 117 110 110 104 96 83 68 42 22 27 24 14 8 1 359 348 337 330 319 312
301 303 297 298 233 244 307 121 141 229 250 276 6 161 221 196 175 167 169 162 154 175 176 170 164 151 147 147 143 132 120 100 30 25 10 5 1 354 340 334 332 330 322 313
201 268 304 316 321 108 18 269 178 159 296 22 259 211 281 213 212 218 209 175 168 182 170 175 180 173 174 174 172 168 165 177 209 228 266 292 313 318 314 315 318 314 315 318
172 251 324 337 31 24 118 121 59 61 25 319 292 218 214 205 221 221 213 201 198 192 191 194 198 197 190 183 181 179 182 196 215 224 232 238 251 261 272 286 295 297 300 308
117 91 335 6 18 348 15 31 75 94 159 163 286 273 234 200 204 204 211 208 215 231 239 245 245 232 213 196 192 197 204 212 223 228 231 236 244 249 254 260 266 271 277 286
45 95 358 308 294 352 49 355 133 145 302 125 154 277 270 206 206 191 199 246 285 296 291 288 290 287 269 242 233 231 231 231 233 232 232 237 241 242 245 250 255 256 262 267
69 79 30 346 343 352 8 360 65 123 90 61 46 303 340 340 38 43 26 356 331 326 326 332 335 321 292 268 257 253 248 244 244 239 236 241 244 243 244 247 250 250 251 257
95 79 131 229 274 311 41 43 45 83 87 59 12 321 2 13 23 15 2 338 329 333 340 337 316 294 280 270 263 259 257 251 249 242 237 240 242 241 242 246 248 249 247 249
82 54 330 305 70 84 77 60 61 72 83 91 344 67 15 10 5 345 333 330 337 338 326 312 299 285 278 274 270 264 261 257 252 246 241 240 241 240 240 242 244 245 244 246
73 60 16 1 85 95 73 46 47 53 45 33 59 73 333 327 343 339 335 330 322 309 304 298 293 287 281 276 273 270 267 262 254 248 246 244 240 237 236 238 239 239 240 243
75 77 44 332 325 70 30 17 38 36 31 61 60 303 312 334 335 323 315 306 301 302 302 297 289 280 277 275 272 271 269 265 260 254 251 248 244 241 240 241 238 234 234 235
133 106 106 358 18 25 228 45 57 73 79 67 35 310 315 306 296 294 299 298 301 300 297 292 286 283 281 279 279 278 277 273 269 264 258 253 248 245 243 241 239 237 232 230
135 127 90 75 6 222 1 9 6 333 212 44 353 327 318 308 316 298 283 286 289 290 289 289 290 294 298 300 302 304 302 299 293 285 276 269 260 251 243 238 238 236 231 233
45 79 90 68 13 271 269 312 312 356 255 335 351 327 315 329 329 296 290 293 292 293 298 304 312 316 316 314 315 310 302 297 290 285 280 275 268 261 253 243 236 233 229 235
25 37 65 69 306 274 280 317 34 49 279 299 308 307 308 303 277 285 299 302 304 308 314 320 321 317 307 303 304 302 299 294 291 289 284 280 271 265 262 253 243 237 233 232
124 105 95 95 8 278 315 40 77 243 262 288 296 297 297 290 289 295 304 310 317 320 319 317 314 309 305 305 305 302 298 294 293 291 289 284 276 272 274 260 250 239 230 232
147 175 177 177 206 224 147 146 202 220 270 286 292 299 299 302 302 310 315 318 318 317 316 316 313 313 312 309 304 301 299 297 294 289 286 282 279 271 264 257 253 247 234 229
245 157 115 120 168 169 145 138 306 294 297 301 305 306 310 310 314 321 320 320 320 319 317 317 318 319 316 313 307 301 300 297 293 290 287 281 276 271 262 254 247 244 234 224
207 144 117 147 238 327 334 333 325 339 338 330 322 315 318 322 324 323 323 322 322 320 318 319 322 319 316 315 312 308 305 302 297 292 287 282 273 266 262 253 244 237 231 219
206 151 149 209 223 204 262 285 339 358 338 327 328 326 327 331 326 329 325 321 321 322 322 323 322 320 318 316 314 312 309 307 302 299 294 287 277 267 258 255 261 244 237 234
Height
1490 1496 1500 1493 1489 1490 1489 1491 1491 1481 1469 1471 1476 1478 1478 1479 1481 1484 1487 1488 1489 1489 1491 1490 1491 1492 1492 1491 1492 1492 1491 1492 1492 1492 1494 1496 1498 1499 1501 1503 1505 1505 1507 1508
1496 1497 1485 1480 1478 1480 1483 1488 1488 1480 1471 1474 1482 1488 1487 1487 1489 1491 1493 1494 1495 1494 1493 1492 1492 1492 1492 1490 1490 1489 1489 1490 1492 1494 1494 1495 1497 1498 1499 1501 1502 1503 1504 1504
1494 1487 1478 1478 1479 1481 1482 1485 1485 1483 1478 1478 1484 1497 1496 1496 1495 1497 1499 1500 1500 1499 1497 1496 1494 1492 1491 1491 1491 1491 1491 1491 1492 1493 1494 1495 1497 1497 1497 1498 1499 1499 1500 1501
1489 1484 1481 1481 1481 1479 1488 1476 1476 1479 1489 1500 1494 1512 1505 1503 1502 1502 1503 1504 1505 1504 1501 1499 1496 1494 1492 1492 1493 1494 1493 1493 1493 1494 1495 1496 1495 1496 1496 1496 1496 1496 1496 1497
1493 1486 1485 1485 1481 1478 1479 1473 1476 1480 1489 1500 1502 1511 1513 1507 1509 1509 1507 1506 1506 1505 1503 1501 1499 1497 1495 1495 1495 1495 1495 1495 1495 1494 1494 1494 1494 1494 1494 1493 1492 1492 1492 1492
1486 1481 1481 1481 1476 1474 1473 1477 1483 1492 1501 1515 1509 1515 1521 1514 1512 1509 1507 1505 1504 1505 1504 1503 1500 1499 1498 1498 1498 1498 1497 1497 1495 1494 1493 1492 1491 1491 1490 1489 1488 1487 1487 1487
1493 1484 1479 1477 1479 1476 1477 1498 1518 1520 1527 1525 1512 1517 1520 1510 1506 1504 1504 1502 1501 1502 1503 1503 1501 1500 1499 1499 1499 1499 1498 1497 1495 1494 1492 1490 1489 1488 1486 1485 1483 1482 1481 1481
1509 1504 1483 1478 1480 1485 1483 1496 1521 1530 1530 1524 1516 1519 1514 1508 1506 1504 1503 1503 1502 1502 1502 1502 1501 1500 1499 1498 1498 1497 1497 1496 1494 1492 1491 1489 1487 1485 1483 1481 1479 1477 1476 1475
1509 1505 1482 1478 1476 1479 1487 1493 1495 1511 1513 1523 1523 1517 1513 1508 1507 1505 1504 1503 1502 1502 1501 1500 1500 1498 1497 1496 1495 1494 1494 1493 1491 1490 1488 1486 1484 1482 1479 1477 1475 1473 1471 1469
1496 1501 1489 1481 1478 1480 1484 1488 1501 1511 1522 1528 1521 1518 1518 1510 1507 1504 1503 1503 1502 1501 1500 1499 1498 1496 1494 1493 1491 1490 1489 1489 1487 1485 1484 1482 1480 1477 1475 1473 1470 1468 1466 1464
1489 1501 1497 1490 1492 1492 1489 1492 1500 1511 1516 1526 1528 1523 1504 1504 1502 1502 1502 1501 1501 1500 1498 1497 1495 1493 1490 1488 1487 1486 1485 1483 1482 1480 1478 1476 1474 1472 1470 1468 1465 1463 1460 1459
1490 1503 1510 1500 1489 1486 1488 1492 1500 1514 1516 1518 1525 1523 1500 1501 1501 1501 1502 1502 1501 1499 1497 1494 1491 1489 1487 1485 1484 1482 1480 1478 1475 1473 1471 1469 1467 1465 1463 1461 1459 1457 1455 1454
1492 1507 1520 1516 1506 1495 1495 1493 1495 1505 1515 1520 1526 1522 1503 1503 1504 1504 1504 1502 1500 1497 1494 1491 1488 1486 1484 1481 1479 1477 1474 1471 1468 1466 1463 1461 1459 1458 1456 1454 1453 1451 1449 1448
1490 1507 1517 1524 1515 1502 1503 1499 1497 1505 1519 1520 1518 1515 1510 1507 1507 1505 1504 1501 1498 1495 1492 1489 1485 1482 1479 1476 1473 1470 1466 1464 1461 1458 1455 1453 1451 1450 1448 1447 1445 1444 1442 1441
1493 1507 1504 1502 1499 1500 1504 1503 1501 1506 1509 1517 1515 1514 1514 1510 1508 1505 1502 1498 1494 1491 1488 1484 1480 1476 1473 1469 1465 1461 1458 1455 1452 1449 1446 1444 1443 1441 1440 1439 1437 1436 1435 1433
1497 1505 1506 1507 1501 1502 1506 1505 1504 1505 1507 1509 1511 1515 1511 1508 1505 1501 1498 1494 1490 1487 1482 1478 1474 1470 1465 1461 1457 1453 1449 1446 1443 1440 1437 1435 1434 1432 1431 1430 1429 1428 1427 1426
1501 1505 1513 1516 1505 1504 1519 1512 1510 1510 1511 1512 1517 1516 1509 1505 1502 1499 1495 1491 1487 1482 1477 1472 1467 1462 1457 1453 1448 1444 1440 1436 1433 1430 1428 1426 1424 1423 1421 1421 1420 1419 1418 1417
1500 1506 1515 1518 1517 1524 1520 1508 1507 1510 1513 1512 1511 1510 1506 1503 1499 1496 1492 1487 1482 1477 1471 1465 1460 1454 1449 1445 1440 1435 1431 1427 1424 1421 1418 1416 1414 1412 1411 1411 1410 1410 1409 1409
1494 1503 1515 1524 1524 1520 1514 1509 1508 1510 1512 1511 1509 1506 1502 1498 1494 1491 1488 1483 1477 1471 1465 1459 1454 1448 1442 1437 1432 1427 1422 1418 1414 1411 1408 1406 1404 1402 1401 1400 1400 1400 1400 1399
1499 1502 1515 1522 1524 1527 1520 1509 1505 1507 1513 1509 1506 1503 1499 1494 1494 1487 1481 1477 1471 1465 1460 1453 1447 1442 1436 1430 1424 1419 1413 1408 1404 1400 1397 1394 1392 1391 1389 1389 1389 1389 1389 1389
1510 1514 1521 1524 1525 1521 1514 1508 1507 1519 1518 1507 1504 1501 1497 1493 1490 1482 1476 1471 1465 1460 1454 1448 1441 1435 1429 1422 1416 1409 1403 1398 1393 1389 1385 1382 1380 1379 1377 1377 1377 1377 1378 1379
1515 1520 1522 1526 1529 1526 1511 1509 1513 1515 1507 1505 1501 1498 1493 1489 1483 1478 1472 1466 1460 1454 1448 1442 1434 1427 1420 1414 1407 1400 1394 1388 1383 1378 1374 1371 1369 1367 1366 1366 1366 1367 1368 1369
1510 1512 1515 1519 1521 1513 1510 1510 1510 1508 1505 1502 1498 1494 1490 1484 1479 1473 1468 1462 1456 1450 1443 1435 1428 1420 1413 1406 1399 1392 1385 1379 1374 1369 1365 1361 1359 1357 1356 1356 1356 1357 1358 1359
1505 1503 1508 1512 1511 1510 1509 1508 1507 1505 1502 1499 1495 1491 1486 1481 1475 1470 1464 1457 1451 1444 1437 1429 1421 1413 1405 1398 1392 1385 1378 1371 1366 1361 1356 1353 1350 1348 1347 1347 1347 1348 1349 1351
1502 1503 1508 1510 1508 1508 1506 1505 1503 1501 1498 1495 1492 1488 1483 1477 1472 1466 1460 1453 1446 1439 1431 1423 1415 1407 1399 1392 1384 1378 1371 1365 1359 1354 1349 1346 1343 1341 1340 1339 1340 1341 1342 1345
1501 1503 1507 1510 1506 1506 1505 1503 1500 1498 1495 1492 1488 1484 1480 1475 1469 1463 1456 1450 1442 1434 1426 1418 1410 1402 1394 1387 1379 1373 1366 1360 1354 1349 1344 1340 1337 1335 1334 1334 1334 1335 1337 1340